OSLO/GARDERMOEN current weather conditions

sailwx.info

Wind from 360 at 9 knots

Air temperature 5.0° C
Visibility: greater than 5.4 NM
Dewpoint -5.0° C

Last reported at 2017-Apr-25 16:50 UTC.
Time now 2017-Apr-25 18:25 UTC

Location: N 60°12' E 011°05'.
View on Google Maps.

See reports from other nearby stations

  
Tides and Currents Weather Stations Pressure Air Temp Water Temp Dewpoint Dewpoint Depression Visibility Wind Speed Wind Dir Waves Ship Positions
date/time (UTC)wind fromknots sea level pressurealtimeterstation pressurevisibilityair tempwater tempwave heightnotes
2017-Apr-25 17:50 360 11 5.4 4.0
2017-Apr-25 17:20 350 11 5.4 4.0
2017-Apr-25 16:50 360 9 5.4 5.0
2017-Apr-25 16:20 360 9 5.4 5.0
2017-Apr-25 15:50 360 9 5.4 4.0
2017-Apr-25 15:20 360 11 5.4 4.0 Showers in the vicinity.
2017-Apr-25 14:50 360 13 5.4 3.0 Light rain showers.
2017-Apr-25 14:20 010 13 5.4 4.0 Showers in the vicinity.
2017-Apr-25 13:50 020 14 5.4 4.0 Showers in the vicinity.
2017-Apr-25 13:20 010 13 5.4 3.0 Light rain showers.
2017-Apr-25 12:50 360 13 5.4 3.0 Light rain showers.
2017-Apr-25 12:20 010 14 5.4 3.0 Light rain showers.
2017-Apr-25 11:50 020 17 5.4 3.0 Showers in the vicinity.
2017-Apr-25 11:20 010 18 5.4 3.0 Showers in the vicinity.
2017-Apr-25 10:50 010 15 5.4 3.0
2017-Apr-25 10:20 010 14 5.4 3.0
2017-Apr-25 09:50 010 17 5.4 2.0
2017-Apr-25 09:20 010 17 gusting 27 5.4 2.0
2017-Apr-25 08:50 010 17 5.4 2.0
2017-Apr-25 08:20 010 17 5.4 2.0
2017-Apr-25 07:50 010 14 5.4 1.0
2017-Apr-25 07:20 010 14 5.4-0.0 Showers in the vicinity.
2017-Apr-25 06:50 010 13 5.4-0.0
2017-Apr-25 06:20 010 13 5.4-0.0
2017-Apr-25 05:50 360 14 5.4-1.0 Showers in the vicinity.
2017-Apr-25 05:20 360 13 2.1-1.0 Light snow.
2017-Apr-25 04:50 360 13 5.4-1.0 Light snow.
2017-Apr-25 04:20 360 13 3.2-1.0 Light snow.
2017-Apr-25 03:50 360 13 5.4-1.0 Light snow.
2017-Apr-25 03:20 010 13 3.8-1.0 Light snow.
2017-Apr-25 02:50 010 15 3.8-1.0 Light snow.
2017-Apr-25 02:20 010 14 3.2-1.0 Light snow.
2017-Apr-25 01:50 360 13 1.9-1.0 Light snow.
2017-Apr-25 01:20 360 13 3.8-0.0 Light snow.
2017-Apr-25 00:50 360 13 5.4-0.0 Light snow.
2017-Apr-25 00:20 360 13 4.9-0.0 Light snow.
2017-Apr-24 23:50 360 13 4.9-0.0 Light snow.
2017-Apr-24 23:20 010 12 4.9-0.0 Light snow.
2017-Apr-24 22:50 010 13 2.7-0.0 Light snow.
2017-Apr-24 22:20 360 11 2.7-0.0 Light snow.
2017-Apr-24 21:50 010 14 4.3-0.0 Light snow.
2017-Apr-24 21:20 010 14 4.9-0.0 Light drizzle snow.
2017-Apr-24 20:50 010 13 5.4-0.0 Light drizzle snow.
2017-Apr-24 20:20 010 12 2.7-0.0 Light snow.
2017-Apr-24 19:50 010 13 1.2-0.0 Snow.
2017-Apr-24 19:20 010 13 0.6-0.0 Snow.
2017-Apr-24 18:50 010 13 0.9-0.0 Light snow.
2017-Apr-24 18:20 010 14 0.5-0.0 Snow.
2017-Apr-24 17:50 010 13 0.9-0.0 Light snow.
2017-Apr-24 17:20 010 13 0.9-0.0 Snow.
2017-Apr-24 16:50 010 13 0.5-0.0 Snow.
2017-Apr-24 16:20 010 13 0.5-0.0 Light snow.
2017-Apr-24 15:50 020 12 0.7-0.0 Light snow.
2017-Apr-24 15:20 020 12 0.7-0.0 Snow.
2017-Apr-24 14:50 020 12 0.6-0.0 Snow.
2017-Apr-24 14:20 020 12 1.3 1.0 Light snow.
2017-Apr-24 13:50 030 9 1.0 1.0 Snow.
2017-Apr-24 13:20 040 11 0.8 1.0 Snow.
2017-Apr-24 12:50 030 11 0.6-0.0 Snow.
2017-Apr-24 12:20 030 11 0.6-0.0 Snow.
2017-Apr-24 11:50 040 8 0.7-0.0 Snow.
2017-Apr-24 11:20 030 9 0.6-0.0 Snow.
2017-Apr-24 10:50 040 8 0.8-0.0 Snow.
2017-Apr-24 10:20 030 7 0.5-0.0 Snow.
2017-Apr-24 09:50 040 8 0.7-0.0 Snow.
2017-Apr-24 09:20 050 8 0.5-0.0 Snow.
2017-Apr-24 08:50 060 7 0.3-0.0 Snow.
2017-Apr-24 08:20 060 6 0.4-0.0 Snow.
2017-Apr-24 07:50 070 7 0.2-0.0 Heavy snow.
2017-Apr-24 07:20 080 8 0.2-0.0 Heavy snow.
2017-Apr-24 06:50 070 8 0.3-0.0 Heavy snow.
2017-Apr-24 06:20 080 8 0.4-0.0 Snow.
2017-Apr-24 05:50 080 8 0.4-1.0 Snow.
2017-Apr-24 05:20 080 7 0.4-1.0 Snow.
2017-Apr-24 04:50 090 6 0.4-1.0 Snow.
2017-Apr-24 04:20 100 5 0.5-1.0 Snow.
2017-Apr-24 03:50 090 4 0.8-1.0 Snow.
2017-Apr-24 03:20 160 6 1.7-0.0 Light snow.
2017-Apr-24 02:50 5.4-0.0 Light rain.
2017-Apr-24 02:20 5.4-0.0
2017-Apr-24 01:50 5.4-1.0
2017-Apr-24 01:20 5.4-1.0
2017-Apr-24 00:50 5.4-0.0
2017-Apr-24 00:20 5.4-0.0
2017-Apr-23 23:50 5.4-0.0
2017-Apr-23 23:20 5.4-0.0
2017-Apr-23 22:50 5.4-0.0
2017-Apr-23 22:20 5.4-1.0
2017-Apr-23 21:50 030 1 5.4-1.0
2017-Apr-23 21:20 5.4-0.0
2017-Apr-23 20:50 5.4 1.0
2017-Apr-23 20:20 5.4 1.0
2017-Apr-23 19:50 5.4 3.0
2017-Apr-23 19:20 5.4 4.0
2017-Apr-23 18:50 5.4 4.0
2017-Apr-23 18:20 030 4 5.4 5.0